User: anonymous   Login
Location: Unspecified
(0.0000°N, 0.0000°E)
Time: 23:19:58
(UTC+00:00)
Language:

Amsat-Oscar-8 - Orbit

View from above orbital plane
View from above orbital plane
View from above satellite
View from above satellite

Ground track
Ground track

The orbit data is extracted from the following two-line orbital elements,

1 10703U 78026B   17141.90096688 +.00000244 +00000-0 +19773-3 0  9994
2 10703 098.8839 105.2894 0007826 054.8810 003.6899 13.99219760000660
Epoch (UTC): 21 May 2017 21:37:23
Eccentricity: 0.0007826
inclination: 98.8839°
perigee height: 891 km
apogee height: 902 km
right ascension of ascending node: 105.2894°
argument of perigee: 54.8810°
revolutions per day: 13.99219760
mean anomaly at epoch: 3.6899°
orbit number at epoch: 66

The dashed part of the orbit path shows where the satellite is in the earth's shadow,  

DLR